ANIK F1

Last updated on Tue Oct 08 2024 00:02:37 GMT+0000 (Coordinated Universal Time)

1 26624U 00076A 24281.43329718 -.00000050 00000+0 00000+0 0 9991 2 26624 3.5875 82.3043 0007433 87.9060 253.1631 1.00272279 36940
UTC large
Height (km)
Speed (km/s)
/
Latitude / Longitude
Inclination (degrees)
Orbital Period (minutes)
Azimuth
Elevation
Range (km)
Doppler Factor

Next 0 passes for location: London (51.5072 / 0.1276)

Sorry there are no passes over London.